Time,B instrument,Bx,By,Bz,sigma B,Ion instrument,Status,Tp_par,Tp_perp,carrot,r_sun,clat,clong,earth_he_angle,n_p,vp_x,vp_y,vp_z,vth_p_par,vth_p_perp
1980-06-26 00:11:39,-1,nan,nan,nan,nan,1,3,nan,nan,1696,0.6051473,6.4246254,227.72215,98.503403,nan,344.342,11.5526,-3.91861,nan,nan
1980-06-26 00:33:15,-1,nan,nan,nan,nan,1,3,nan,nan,1696,0.60532814,6.4229927,227.53658,98.517044,nan,362.856,27.8044,16.0138,nan,nan
1980-06-26 00:54:51,-1,nan,nan,nan,nan,1,3,nan,nan,1696,0.6055007,6.4214334,227.35429,98.530075,nan,338.614,-2.1903,-20.4629,nan,nan
1980-06-26 01:16:27,-1,nan,nan,nan,nan,1,3,nan,nan,1696,0.60568142,6.4197998,227.16869,98.543686,nan,346.388,17.6557,-6.30983,nan,nan
1980-06-26 01:38:03,-1,nan,nan,nan,nan,1,3,nan,nan,1696,0.60586214,6.4181652,226.98306,98.557281,nan,340.869,12.5604,16.6131,nan,nan
1980-06-26 01:59:39,-1,nan,nan,nan,nan,1,3,nan,nan,1696,0.60603464,6.416605,226.79681,98.570251,nan,344.783,-4.54728,40.6736,nan,nan
1980-06-26 02:21:15,-1,nan,nan,nan,nan,1,3,nan,nan,1696,0.60621518,6.4149704,226.61115,98.583801,nan,397.276,11.3544,-36.7104,nan,nan
1980-06-26 02:42:51,-1,nan,nan,nan,nan,1,3,nan,nan,1696,0.60638756,6.4134092,226.42487,98.596741,nan,419.037,0.606354,-25.7665,nan,nan
1980-06-26 03:04:27,-1,nan,nan,nan,nan,1,3,nan,nan,1696,0.6065681,6.4117737,226.24309,98.610275,nan,398.338,24.4323,-3.18187,nan,nan
1980-06-26 03:26:03,-1,nan,nan,nan,nan,1,3,nan,nan,1696,0.60674858,6.4101362,226.05739,98.623795,nan,410.472,5.16335,-32.2587,nan,nan
1980-06-26 03:47:39,-1,nan,nan,nan,nan,1,3,nan,nan,1696,0.60692084,6.4085722,225.87105,98.636673,nan,349.907,24.0582,3.794,nan,nan
1980-06-26 03:59:35,-1,nan,nan,nan,nan,1,3,nan,nan,1697,0.60704553,6.4180036,225.70724,98.582245,nan,349.904,24.0528,3.794,nan,nan
1980-06-26 04:47:40,1,-4.04167,8.45,8.15833,1.4534,1,1,43094.2,51096.8,1697,0.60743964,6.4143314,225.29526,98.611664,10.4202,370.954,8.66027,54.2021,26.6727,29.0439
1980-06-26 04:47:57,-1,nan,nan,nan,nan,1,4,nan,nan,1696,0.60741276,6.4041023,225.3531,98.673416,nan,nan,nan,nan,nan,nan
1980-06-26 04:48:37,1,-3.38333,12.0083,3.55,1.40759,1,1,47518.2,40157.1,1696,0.60742092,6.4040279,225.3459,98.674026,7.70072,358.75,-23.691,62.6821,28.0084,25.7477
1980-06-26 04:48:38,1,-3.56923,11.8846,3.64615,1.59318,1,1,34348.9,42554.7,1696,0.60742092,6.4040279,225.3459,98.674026,8.73472,362.729,25.8161,35.5342,23.813,26.5052
1980-06-26 04:49:01,1,-4.74615,10.8615,4.8,0.85858,1,1,53942.2,44278.0,1696,0.60742915,6.4039536,225.34261,98.674637,8.60721,369.94,23.9269,35.2981,29.8416,27.0366
1980-06-26 04:49:41,1,-5.24615,10.7615,4.58462,0.798075,1,1,41033.7,47718.8,1696,0.60742915,6.4039536,225.3387,98.674637,9.39752,362.985,26.3278,29.7541,26.0273,28.0674
1980-06-26 04:50:22,1,-4.23077,11.8538,3.06923,0.791673,1,1,49389.3,41751.6,1696,0.60743731,6.4038792,225.33151,98.675262,9.08888,367.097,30.8059,18.3315,28.5545,26.254
1980-06-26 04:51:02,1,-4.97143,11.1429,4.2,1.11043,1,1,41323.4,52896.2,1696,0.60744554,6.4038048,225.32822,98.675873,11.2697,366.12,29.9252,25.7375,26.119,29.5509
1980-06-26 04:51:43,1,-5.58333,10.5417,4.975,0.875992,1,1,45539.1,43107.2,1696,0.60744554,6.4038048,225.3204,98.675873,9.9165,360.378,24.7659,32.6087,27.4189,26.6767
1980-06-26 04:52:23,1,-5.57143,11.1857,3.37857,2.14192,1,1,40442.0,53386.4,1696,0.6074537,6.4037304,225.31711,98.676483,10.6992,357.191,26.6813,23.8339,25.8389,29.6875
1980-06-26 04:53:04,1,-10.0,4.31667,5.525,2.38536,1,1,30880.4,72255.2,1696,0.60746193,6.4036551,225.30991,98.677094,12.0789,331.127,-6.1315,33.9053,22.5787,34.5376
1980-06-26 04:53:44,1,-8.15833,8.5,4.85,1.8239,1,1,40084.6,42503.9,1696,0.60746193,6.4036551,225.30209,98.677094,8.70345,344.889,13.9143,32.8892,25.7245,26.4894
1980-06-26 04:54:25,1,-6.0,11.1818,0.463636,3.33578,1,1,35297.5,54910.5,1696,0.6074701,6.4035807,225.2988,98.677704,11.9749,340.75,17.186,18.0567,24.1396,30.1083
1980-06-26 04:55:05,1,-1.53333,12.3333,-4.1,1.33208,1,1,58644.1,57047.0,1696,0.60747832,6.4035063,225.2916,98.678314,11.8712,378.467,29.93,-22.6123,31.115,30.6884
1980-06-26 04:55:46,1,-2.91538,12.3923,-3.07692,0.916902,1,1,53418.6,46428.2,1696,0.60747832,6.4035063,225.28769,98.678314,9.89391,374.896,30.332,-11.0292,29.6964,27.6853
1980-06-26 04:56:26,-1,nan,nan,nan,nan,1,-3,nan,nan,1696,0.60748649,6.4034319,225.28049,98.678925,nan,370.088,36.1794,-13.3674,nan,nan
1980-06-26 04:57:07,1,-8.29167,2.70833,8.23333,0.954158,1,1,52151.4,51620.4,1696,0.60749471,6.4033575,225.27328,98.679535,8.43745,344.233,-11.2275,54.5443,29.3421,29.1923
1980-06-26 04:57:47,1,-9.73333,2.40833,7.34167,1.42259,1,1,38195.0,52924.1,1696,0.60749471,6.4033575,225.26938,98.679535,9.98949,344.418,-24.8602,54.0176,25.1108,29.5587
1980-06-26 04:58:28,1,-10.4083,4.64167,6.2,0.660702,1,1,35082.1,50202.4,1696,0.60750288,6.4032831,225.26218,98.680145,9.6145,334.349,-10.0775,41.0728,24.0658,28.7886
1980-06-26 04:59:08,1,-10.3917,6.825,4.88333,0.735319,1,1,37590.4,47476.6,1696,0.6075111,6.4032087,225.25888,98.680756,9.55228,331.115,-1.54658,32.635,24.9113,27.9961
1980-06-26 04:59:49,1,-10.4727,7.87273,2.25455,0.972855,1,1,32747.7,50519.6,1696,0.6075111,6.4032087,225.25107,98.680756,9.50949,331.99,10.2184,13.8226,23.2514,28.8794
1980-06-26 05:00:29,1,-9.73333,8.06667,3.83333,0.452769,1,1,41487.3,55067.3,1696,0.60751933,6.4031343,225.24388,98.681381,10.3809,336.134,10.8865,24.4857,26.1707,30.1512
1980-06-26 05:01:10,1,-9.78182,7.62727,4.52727,0.55922,1,1,36124.7,51064.0,1696,0.60752749,6.403059,225.24057,98.681976,9.93966,337.673,10.1733,29.401,24.4208,29.0346
1980-06-26 05:01:50,1,-10.7231,6.83846,3.26923,1.20708,1,1,36598.7,54172.9,1696,0.60752749,6.403059,225.23276,98.681976,9.96511,331.45,6.77893,20.151,24.5805,29.9054
1980-06-26 05:02:31,1,-10.2091,6.8,4.51818,1.65709,1,1,47724.0,51288.9,1696,0.60753566,6.4029846,225.22946,98.682587,10.5532,334.548,4.13732,32.3713,28.069,29.0984
1980-06-26 05:03:11,1,-9.24615,8.53077,4.53077,0.725772,1,1,33863.0,45837.0,1696,0.60754389,6.4029102,225.22226,98.683197,9.72036,339.82,17.1428,28.8431,23.644,27.5084
1980-06-26 05:04:32,1,-8.2,9.71429,4.25714,0.687201,1,1,34899.9,45977.4,1696,0.60755205,6.4028358,225.21115,98.683807,9.46587,346.115,20.3092,28.0749,24.0032,27.5505
1980-06-26 05:05:13,1,-9.43636,8.0,4.85455,0.918137,1,1,36559.3,45712.7,1696,0.60756028,6.4027615,225.20395,98.684418,9.77646,335.487,8.42016,31.7729,24.5673,27.4711
1980-06-26 05:05:53,1,-8.40833,9.225,4.85,0.491737,1,1,37563.5,48751.3,1696,0.60756028,6.4027615,225.20004,98.684418,9.65081,344.999,18.5579,31.03,24.9024,28.3695
1980-06-26 05:06:34,1,-7.95,9.03333,5.70833,0.548166,1,1,33357.6,45623.0,1696,0.60756844,6.4026861,225.19284,98.685028,9.41949,344.903,15.1629,35.4651,23.4669,27.4441
1980-06-26 05:07:14,1,-7.39167,9.49167,5.60833,0.842986,1,1,40086.9,50775.3,1696,0.60757667,6.4026117,225.18954,98.685638,10.2931,350.764,18.6451,33.7208,25.7252,28.9524
1980-06-26 05:07:55,1,-4.38333,12.4833,1.10833,2.60516,1,1,47971.5,46220.9,1696,0.60757667,6.4026117,225.18173,98.685638,9.97189,360.947,29.1804,21.4268,28.1417,27.6234
1980-06-26 05:08:35,1,-3.62857,11.7,2.47143,3.85614,1,1,42913.8,48049.0,1696,0.60758483,6.4025373,225.17453,98.686249,10.5721,375.816,36.1464,10.0868,26.6168,28.1644
1980-06-26 05:09:16,1,-8.31538,9.12308,4.79231,1.2462,1,1,35176.9,53061.9,1696,0.60759306,6.402463,225.17123,98.686859,9.87697,341.428,19.0197,22.8621,24.0983,29.5971
1980-06-26 05:09:56,1,-8.21667,9.46667,4.475,1.17919,1,1,39862.0,40831.1,1696,0.60759306,6.402463,225.16342,98.686859,8.87437,338.064,7.78193,34.0359,25.653,25.9629
1980-06-26 05:10:37,1,-7.6,10.4909,3.42727,0.855512,1,1,40638.0,49679.7,1696,0.60760123,6.4023886,225.16013,98.687469,10.3145,345.67,21.7167,29.0585,25.9014,28.6383
1980-06-26 05:11:17,1,-8.35,8.95,5.2,0.644205,1,1,39696.6,47269.4,1696,0.60760939,6.4023142,225.15292,98.68808,9.40288,342.607,16.7266,28.8472,25.5997,27.9349
1980-06-26 05:11:57,1,-7.21818,11.6636,-0.727273,1.56912,1,1,41197.5,43636.4,1696,0.60760945,6.4023132,225.14511,98.68808,9.77103,349.682,28.5149,1.20214,26.0791,26.84
1980-06-26 05:48:06,-1,nan,nan,nan,nan,1,3,nan,nan,1696,0.60791254,6.3995552,224.83565,98.710648,nan,382.111,33.5055,-17.3669,nan,nan
1980-06-26 05:48:46,1,-3.27857,12.0929,-3.70714,0.696016,1,1,55311.6,51258.5,1696,0.60791254,6.3995552,224.83174,98.710648,10.1114,371.807,29.4337,-21.0455,30.218,29.0898
1980-06-26 05:49:27,1,-4.1,12.2385,-0.792308,1.15825,1,1,45057.5,53187.2,1696,0.60792077,6.3994808,224.82454,98.711258,9.94232,358.44,33.3164,-1.00148,27.2735,29.632
1980-06-26 05:50:07,1,-2.38333,12.55,-0.4,1.74276,1,1,57882.0,53322.9,1696,0.60792893,6.3994055,224.82124,98.711868,10.9296,365.802,29.6683,0.906982,30.9122,29.6698
1980-06-26 05:51:29,1,-1.13846,12.0231,-3.99231,1.27651,1,1,57146.4,52223.9,1696,0.60793716,6.3993311,224.80623,98.712479,10.8644,395.297,24.1987,-26.047,30.7151,29.3625
1980-06-26 05:52:10,1,1.30714,11.9786,-3.12857,0.713213,1,1,69235.8,60526.0,1696,0.60794532,6.3992567,224.80293,98.713089,10.8975,393.471,30.1669,-16.5103,33.8083,31.6103
1980-06-26 05:52:50,1,-0.935714,12.55,-2.4,1.64549,1,1,67219.7,48689.6,1696,0.60794532,6.3992567,224.79512,98.713089,10.2783,380.181,32.0879,-4.6427,33.3124,28.3515
1980-06-26 05:53:31,1,-1.41538,12.5692,-0.0461538,1.6501,1,1,51748.0,45826.3,1696,0.60795349,6.3991823,224.79182,98.713699,9.10114,379.12,35.5184,4.89042,29.2284,27.5052
1980-06-26 05:54:11,1,-4.13077,11.0231,-1.43077,4.45955,1,1,57428.6,25313.2,1696,0.60796171,6.3991079,224.78462,98.71431,7.28033,372.005,28.4029,19.3905,30.7909,20.4424
1980-06-26 05:54:52,-1,nan,nan,nan,nan,1,4,nan,nan,1696,0.60796171,6.3991079,224.77681,98.71431,nan,nan,nan,nan,nan,nan
1980-06-26 05:55:32,1,-4.2,12.2167,1.025,0.750509,1,1,54116.2,45426.8,1696,0.60796988,6.3990326,224.77351,98.71492,9.94786,363.831,30.2254,14.2417,29.8897,27.3851
1980-06-26 05:56:12,1,-5.4,11.8615,0.846154,1.54131,1,1,41658.7,42922.6,1696,0.60797811,6.3989582,224.76631,98.71553,8.45621,359.723,31.5003,2.09402,26.2247,26.6196
1980-06-26 05:58:27,1,-6.40833,11.525,-0.6,0.872337,1,1,41616.3,53851.9,1696,0.6079945,6.3988094,224.748,98.716751,10.6506,358.438,30.5586,-3.86031,26.2114,29.8166
1980-06-26 05:59:07,1,-6.35,11.4,0.716667,0.648503,1,1,48863.8,48741.1,1696,0.60800266,6.398735,224.7408,98.717361,10.321,358.597,28.4975,5.6518,28.4022,28.3665
1980-06-26 05:59:35,1,-6.11667,11.4583,1.00833,0.843356,1,1,47178.8,57053.2,1696,0.60800266,6.398735,224.73689,98.717361,11.4533,352.728,26.8874,15.9414,27.9082,30.6901
1980-06-26 06:00:16,1,-6.66667,11.1417,1.26667,1.17695,1,1,39170.1,50218.5,1696,0.60801089,6.3986607,224.7336,98.717972,9.69173,351.516,29.4085,6.89901,25.4293,28.7932
1980-06-26 06:00:56,1,-7.98333,8.86667,4.65,0.60231,1,1,37332.0,58515.2,1696,0.60801089,6.3986597,224.72578,98.717972,9.90475,341.227,18.6055,26.1838,24.8255,31.0808
1980-06-26 06:01:37,1,-8.09167,9.325,4.04167,0.679512,1,1,35285.4,48620.4,1696,0.60801905,6.3985853,224.72247,98.718567,8.35589,345.236,21.1765,25.0176,24.1355,28.3314
1980-06-26 06:02:17,1,-8.06364,9.53636,3.30909,0.918497,1,1,38954.4,48257.3,1696,0.60802722,6.3985109,224.71527,98.719177,8.81398,342.798,20.262,20.7214,25.3592,28.2254
1980-06-26 06:02:58,1,-8.54167,8.19167,4.8,0.555153,1,1,35148.5,52026.0,1696,0.60802722,6.3985109,224.70746,98.719177,9.383,340.067,14.3909,27.4748,24.0886,29.3068
1980-06-26 06:03:38,1,-8.02727,9.22727,3.83636,0.403292,1,1,37436.2,49148.9,1696,0.60803545,6.3984365,224.70416,98.719788,9.09677,342.692,17.585,24.1719,24.8602,28.4849
1980-06-26 06:04:19,1,-8.05385,9.37692,3.56923,0.764756,1,1,35736.9,56762.1,1696,0.60804361,6.3983622,224.69696,98.720398,10.3083,343.144,18.7953,23.2634,24.2894,30.6117
1980-06-26 06:04:59,1,-7.675,9.14167,3.83333,2.59002,1,1,52933.3,66981.0,1696,0.60804361,6.3983612,224.69305,98.720398,12.1468,358.977,30.042,16.8016,29.5612,33.2532
1980-06-26 06:05:40,-1,nan,nan,nan,nan,1,4,nan,nan,1696,0.60805178,6.3982868,224.68585,98.721008,nan,nan,nan,nan,nan,nan
1980-06-26 06:06:20,1,-9.03333,8.675,2.9,1.15935,1,1,38435.0,57149.0,1696,0.60806,6.3982124,224.67865,98.721619,10.8175,342.234,22.0249,13.9782,25.1896,30.7158
1980-06-26 06:07:01,1,-8.24615,9.54615,2.84615,0.613748,1,1,37211.0,54894.6,1696,0.60806817,6.398138,224.67534,98.722214,9.3403,341.207,20.0414,20.1105,24.7853,30.1039
1980-06-26 06:07:41,1,-8.08333,10.0,1.20833,1.25784,1,1,41237.7,49880.7,1696,0.60806817,6.398138,224.66753,98.722214,8.67021,345.003,24.8173,14.6403,26.0919,28.6962
1980-06-26 06:08:22,1,-6.125,9.93333,4.825,1.45578,1,1,40219.3,55907.7,1696,0.60807633,6.3980637,224.66423,98.722824,10.0967,353.75,23.9568,22.6276,25.7677,30.3804
1980-06-26 06:09:02,1,-5.64167,10.6333,3.29167,2.43524,1,1,33371.4,42915.0,1696,0.60808456,6.3979883,224.65703,98.723434,7.30736,350.721,11.1915,40.544,23.4717,26.6172
1980-06-26 06:09:43,1,-4.59167,10.2417,5.55,0.795211,1,1,37149.8,45719.4,1696,0.60808456,6.3979883,224.65312,98.723434,9.16227,365.692,24.5922,32.3805,24.7649,27.4731
1980-06-26 06:10:23,1,-4.95,12.0667,0.433333,0.829826,1,1,45361.3,52960.7,1696,0.60809273,6.3979139,224.64592,98.724045,10.1974,360.679,31.8463,-0.177793,27.3653,29.5689
1980-06-26 06:11:04,1,-6.06154,11.4923,1.02308,1.01614,1,1,45576.0,49427.7,1696,0.60810089,6.3978395,224.63872,98.724655,9.7663,360.168,32.7827,5.23613,27.43,28.5656
1980-06-26 06:11:44,1,-7.54167,10.575,-1.325,1.30748,1,1,38712.1,55205.0,1696,0.60810089,6.3978395,224.63481,98.724655,9.8557,338.967,19.3002,-4.67363,25.2802,30.1889
1980-06-26 06:12:25,1,-6.91667,10.175,2.575,2.11703,1,1,24831.7,31317.2,1696,0.60810912,6.3977652,224.62761,98.725266,6.61449,345.549,24.1785,18.7208,20.247,22.7378
1980-06-26 06:13:05,1,-4.19167,11.5417,3.63333,0.86434,1,1,44680.9,48199.3,1696,0.60811728,6.3976898,224.6243,98.725861,8.86822,364.817,29.4964,20.4916,27.1593,28.2084
1980-06-26 06:13:46,1,-3.19231,12.4231,1.16154,1.42837,1,1,44225.1,55796.0,1696,0.60811728,6.3976898,224.61649,98.725861,8.88789,369.441,35.1653,13.3659,27.0204,30.3501
1980-06-26 06:14:26,1,-1.76429,12.5357,-1.02857,0.972216,1,1,66578.3,47315.4,1696,0.60812545,6.3976154,224.60928,98.726471,9.76947,382.16,31.4475,-6.97325,33.1531,27.9486
1980-06-26 06:15:07,1,-5.1,11.6643,0.742857,1.51012,1,1,49380.8,56933.7,1696,0.60813367,6.397541,224.60599,98.727081,11.2293,369.943,41.1237,1.88918,28.552,30.6579
1980-06-26 06:15:47,-1,nan,nan,nan,nan,1,-3,nan,nan,1696,0.60813367,6.397541,224.59818,98.727081,nan,346.846,29.6955,7.47488,nan,nan
1980-06-26 06:16:28,1,-11.4583,-2.83333,1.4,1.28763,1,1,40310.5,54829.6,1696,0.60814184,6.3974667,224.59488,98.727692,9.83611,327.995,-43.4733,15.9339,25.7969,30.0861
1980-06-26 06:17:08,-1,nan,nan,nan,nan,1,4,nan,nan,1696,0.60815001,6.3973913,224.58768,98.728302,nan,nan,nan,nan,nan,nan
1980-06-26 06:17:49,1,-11.4667,-1.30833,0.6,2.92227,1,1,32929.4,65366.1,1696,0.60815006,6.3973913,224.57986,98.728302,11.2092,323.196,-21.1897,6.2435,23.3158,32.8499
1980-06-26 06:18:29,1,-11.5167,-0.266667,3.93333,0.824116,1,1,31751.7,49374.8,1696,0.60815823,6.3973169,224.57657,98.728912,8.7515,326.213,-32.1288,26.1784,22.895,28.5503
1980-06-26 06:19:10,1,-11.9818,0.718182,3.26364,0.755476,1,1,37951.9,52240.0,1696,0.6081664,6.3972425,224.56935,98.729507,9.41281,324.615,-23.9067,26.0468,25.0308,29.367
1980-06-26 06:19:50,1,-12.3,1.75833,2.30833,1.16327,1,1,30131.5,58386.2,1696,0.6081664,6.3972425,224.56544,98.729507,9.61111,323.407,-18.8854,20.6689,22.3033,31.0465
1980-06-26 06:20:31,1,-12.4833,1.70833,1.06667,0.333229,1,1,33567.6,58407.4,1696,0.60817462,6.3971682,224.55824,98.730118,9.92325,321.225,-18.7792,9.87334,23.5406,31.0522
1980-06-26 06:21:11,1,-12.5909,2.01818,0.418182,0.55774,1,1,29663.4,53607.4,1696,0.60818279,6.3970928,224.55495,98.730728,9.02379,319.713,-18.4269,4.53988,22.1293,29.7489
1980-06-26 06:21:52,1,-12.4636,3.61818,0.109091,1.01493,1,1,33396.1,53559.6,1696,0.60818279,6.3970928,224.54713,98.730728,9.24325,320.121,-13.8965,2.08875,23.4804,29.7356
1980-06-26 06:22:32,1,-12.4909,3.07273,1.20909,0.586205,1,1,30047.1,57214.1,1696,0.60819095,6.3970184,224.53993,98.731339,9.30816,321.185,-15.23,11.3642,22.272,30.7333
1980-06-26 06:23:13,1,-12.2455,3.90909,1.9,0.584369,1,1,32103.7,54879.1,1696,0.60819918,6.396944,224.53664,98.731949,9.36817,323.51,-6.99736,15.2077,23.0216,30.0996
1980-06-26 06:23:53,1,-12.05,3.45,2.23333,0.653622,1,1,29630.3,56595.2,1696,0.60819918,6.396944,224.52882,98.731949,9.54967,322.663,-10.3022,11.4139,22.117,30.5666
1980-06-26 06:24:34,1,-11.2545,5.94545,1.91818,0.970047,1,1,30306.5,55327.8,1696,0.60820735,6.3968697,224.52553,98.732559,9.83558,326.425,4.0237,11.3197,22.3679,30.2224
1980-06-26 06:25:14,1,-11.45,4.66667,2.625,0.67201,1,1,32861.9,55126.8,1696,0.60821551,6.3967943,224.51831,98.733154,8.85667,322.476,-4.58072,16.1593,23.2919,30.1675
1980-06-26 06:25:55,-1,nan,nan,nan,nan,1,4,nan,nan,1696,0.60821551,6.3967943,224.5105,98.733154,nan,nan,nan,nan,nan,nan
1980-06-26 06:26:35,1,-7.825,8.41667,4.73333,1.92366,1,1,36618.9,47622.2,1696,0.60822374,6.3967199,224.5072,98.733765,8.88126,346.162,17.9165,31.5779,24.5873,28.039
1980-06-26 06:27:16,1,-10.2333,6.88333,3.34167,1.00633,1,1,40177.8,51435.8,1696,0.6082319,6.3966455,224.5,98.734375,9.19316,334.947,15.5851,9.49417,25.7544,29.1401
1980-06-26 06:27:56,1,-9.10909,6.99091,5.00909,2.12747,1,1,38628.2,53330.3,1696,0.6082319,6.3966455,224.49609,98.734375,9.69828,331.943,1.91592,26.0448,25.2528,29.6719
1980-06-26 06:28:37,1,-6.63077,8.94615,5.85385,1.01042,1,1,36211.8,52929.7,1696,0.60824007,6.3965712,224.48889,98.734985,9.28968,360.101,24.1329,36.9811,24.4502,29.5602
1980-06-26 06:29:17,1,-11.7333,4.40833,3.09167,0.928484,1,1,31805.6,58637.7,1696,0.60824829,6.3964958,224.48169,98.735596,9.7119,323.544,-8.19867,21.5272,22.9145,31.1133
1980-06-26 06:29:58,1,-11.1909,5.30909,3.47273,0.537672,1,1,31524.1,55083.8,1696,0.60824829,6.3964958,224.47778,98.735596,8.77094,326.49,0.376984,20.06,22.8128,30.1557
1980-06-26 06:30:38,1,-11.0,5.86667,3.4,0.582142,1,1,28451.7,54607.4,1696,0.60825646,6.3964214,224.47058,98.736206,9.28201,326.184,0.850624,19.175,21.6726,30.0251
1980-06-26 06:31:19,1,-10.9455,7.1,1.76364,0.582528,1,1,36369.4,51470.6,1696,0.60826463,6.396347,224.46727,98.736801,8.93654,327.712,5.6481,13.4125,24.5034,29.1499
1980-06-26 06:31:59,1,-10.4364,7.88182,1.16364,0.904899,1,1,31303.4,53810.8,1696,0.60826463,6.396347,224.45946,98.736801,9.6802,332.544,15.9197,5.93805,22.7328,29.8052
1980-06-26 06:32:40,1,-11.1364,7.00909,1.0,0.826523,1,1,35020.8,53169.2,1696,0.60827285,6.3962727,224.45616,98.737411,9.96846,328.627,10.742,7.21169,24.0448,29.627
1980-06-26 06:33:20,1,-10.4636,8.09091,-1.3,0.552231,1,1,31090.3,49383.7,1696,0.60828102,6.3961973,224.44896,98.738022,9.37399,331.805,15.3695,-4.66451,22.6553,28.5529
1980-06-26 06:34:01,-1,nan,nan,nan,nan,1,4,nan,nan,1696,0.60828918,6.3961229,224.44176,98.738632,nan,nan,nan,nan,nan,nan
1980-06-26 06:34:41,1,-9.425,8.98333,-1.53333,1.22426,1,1,31280.1,51162.3,1696,0.60828918,6.3961229,224.43785,98.738632,9.37972,332.653,17.1365,-3.8555,22.7244,29.0625
1980-06-26 06:35:22,1,-10.6273,7.04545,-2.10909,0.814537,1,1,32644.0,59286.5,1696,0.60829741,6.3960485,224.43065,98.739243,9.74785,330.061,12.3763,-8.33184,23.2145,31.285
1980-06-26 06:36:02,1,-5.86364,9.23636,5.85455,1.14963,1,1,47208.3,50382.7,1696,0.60830557,6.3959742,224.42735,98.739853,9.36229,343.079,16.3101,38.3306,27.9169,28.8402
1980-06-26 06:37:22,-1,nan,nan,nan,nan,1,4,nan,nan,1696,0.60831374,6.3958988,224.41232,98.740448,nan,nan,nan,nan,nan,nan
1980-06-26 06:38:03,1,-8.54,10.02,1.16,0.349857,1,1,38948.6,50877.2,1696,0.60832196,6.3958244,224.40903,98.741058,8.64142,338.114,24.7275,2.81877,25.3573,28.9814
1980-06-26 06:38:43,1,-8.85833,9.48333,0.991667,0.465027,1,1,33711.0,53086.9,1696,0.60832196,6.3958244,224.40121,98.741058,9.2234,335.12,19.5036,7.67938,23.5909,29.6041
1980-06-26 06:39:25,1,-9.20833,9.35,0.966667,0.580649,1,1,33343.3,57096.8,1696,0.60833013,6.39575,224.39792,98.741669,9.24259,335.221,21.0493,10.2143,23.4619,30.7018
1980-06-26 06:40:05,1,-9.49091,8.8,1.4,1.45443,1,1,33001.9,58606.0,1696,0.60833836,6.3956757,224.39072,98.742279,9.18215,338.722,26.4102,4.01017,23.3414,31.1049
1980-06-26 06:40:46,1,-9.2,9.80833,0.233333,0.348309,1,1,37642.7,52379.2,1696,0.60833836,6.3956757,224.3829,98.742279,9.21873,337.981,23.2752,1.73096,24.9286,29.4061
1980-06-26 06:41:26,1,-10.1091,8.7,0.354545,1.03117,1,1,39270.5,55895.2,1696,0.60834652,6.3956003,224.37961,98.742889,10.2189,335.208,15.4563,10.2524,25.4619,30.377
1980-06-26 06:42:07,1,-7.66154,11.1769,-1.96923,0.606474,1,1,36511.3,58214.0,1696,0.60835469,6.3955259,224.37241,98.7435,9.68385,346.848,28.4389,-10.8449,24.5511,31.0007
1980-06-26 06:42:47,1,-8.30833,10.3583,-2.55,0.783599,1,1,38857.6,50354.4,1696,0.60835469,6.3955259,224.3685,98.7435,9.15556,342.606,24.1736,-8.35212,25.3277,28.8321
1980-06-26 06:43:28,1,-9.15833,8.15833,-5.38333,1.19704,1,1,35848.3,49860.8,1696,0.60836291,6.3954515,224.36128,98.744095,9.39547,332.921,6.1043,-24.9673,24.3272,28.6905
1980-06-26 06:44:08,1,-8.19167,8.85,-5.14167,2.11913,1,1,31427.3,58095.9,1696,0.60837108,6.3953772,224.35799,98.744705,9.25483,342.531,24.1737,-18.4266,22.7778,30.9692
1980-06-26 06:44:49,1,-7.66667,9.6,-5.175,1.2024,1,1,28529.8,51715.8,1696,0.60837108,6.3953762,224.35017,98.744705,9.18421,345.738,22.9586,-25.8723,21.7024,29.2193
1980-06-26 06:45:29,1,-4.14167,11.725,-1.775,3.51893,1,1,68175.8,58155.7,1696,0.60837924,6.3953018,224.34297,98.745316,10.7213,375.08,37.4564,-3.35818,33.5485,30.9852
1980-06-26 06:46:10,1,-5.9,11.5538,-2.25385,1.48491,1,1,42731.4,52971.2,1696,0.60838747,6.3952274,224.33968,98.745926,9.70449,355.554,30.402,-8.16863,26.5602,29.5718
1980-06-26 06:46:50,1,-5.8,11.4231,-3.42308,1.01928,1,1,34994.7,49043.8,1696,0.60838747,6.3952274,224.33186,98.745926,8.84682,357.868,33.2552,-17.6253,24.0358,28.4544
1980-06-26 06:47:31,1,-7.075,9.8,-5.28333,0.937157,1,1,38264.5,59608.0,1696,0.60839564,6.395153,224.32857,98.746536,11.0704,353.566,26.0152,-28.4016,25.1337,31.3697
1980-06-26 06:48:11,1,-8.59167,8.6,-5.38333,0.940117,1,1,43805.8,47490.4,1696,0.6084038,6.3950787,224.32137,98.747147,8.27579,339.441,17.0459,-25.1505,26.892,28.0002
1980-06-26 06:48:52,1,-8.075,9.13333,-3.84167,2.92116,1,1,36283.8,60135.5,1696,0.6084038,6.3950777,224.31355,98.747147,9.96765,335.847,12.9876,-23.4695,24.4745,31.5082
1980-06-26 06:49:32,1,-7.44167,10.05,-3.775,1.84936,1,1,38361.0,53848.3,1696,0.60841203,6.3950033,224.31024,98.747742,9.47243,353.528,31.8645,-11.075,25.1653,29.8156
1980-06-26 06:50:13,1,-7.39167,10.4083,-3.36667,0.895591,1,1,37133.6,56848.1,1696,0.60842019,6.3949289,224.30304,98.748352,9.5782,346.488,25.8452,-21.5081,24.7595,30.6348
1980-06-26 06:50:53,1,-5.8,10.9077,-4.36154,0.994601,1,1,44886.2,45444.3,1696,0.60842019,6.3949289,224.29913,98.748352,9.0105,351.834,28.2052,-21.6953,27.2216,27.3904
1980-06-26 06:51:34,1,-6.50833,10.3583,-4.08333,1.87472,1,1,35254.6,40063.5,1696,0.60842836,6.3948545,224.29193,98.748962,6.86367,361.889,36.1821,-15.9645,24.1249,25.7177
1980-06-26 06:52:14,1,-5.37692,11.3308,-3.79231,0.429669,1,1,38917.9,52011.2,1696,0.60843658,6.3947802,224.28473,98.749573,9.48428,353.964,29.2265,-23.9455,25.3474,29.3026
1980-06-26 06:52:55,1,-5.35833,11.3333,-3.86667,0.360844,1,1,35619.6,52101.4,1696,0.60843658,6.3947792,224.28082,98.749573,9.33478,355.046,27.9104,-20.7112,24.2495,29.328
1980-06-26 06:53:35,1,-4.06154,12.0231,-2.93077,0.523416,1,1,57702.4,47770.6,1696,0.60844475,6.3947048,224.27362,98.750183,9.37148,366.199,30.6259,-16.2117,30.8642,28.0826
1980-06-26 06:54:16,1,-6.10769,10.3769,-4.80769,1.59859,1,1,35851.5,74143.1,1696,0.60845292,6.3946304,224.27032,98.750793,11.8067,358.927,26.297,-27.0829,24.3283,34.9859
1980-06-26 06:54:56,1,-7.74167,8.29167,-6.09167,1.68146,1,1,35061.2,50144.6,1696,0.60845298,6.3946304,224.26251,98.750793,8.13254,342.596,15.876,-31.1154,24.0587,28.772
1980-06-26 06:55:37,1,-6.55,8.38333,-7.06667,1.38424,1,1,37407.8,70318.7,1696,0.60846114,6.394556,224.25529,98.751389,10.5698,350.451,10.256,-39.8031,24.8507,34.0717